STARLINK-32637, 62032

Orbit data source: Space-Track

STARLINK-32637, 62032 is a payload satellite owned by SpaceX/Seattle (US) in LEO that was launched on Thu, 21 Nov 2024 UTC via an FALCON 9 launch vehicle from the Air Force Eastern Test Range (AFETR). Payload-class satellites include a variety of spacecraft equipped with specific instruments for various scientific and technological missions. These include communications satellites like Starlink; space stations such as the ISS; scientific satellites like the Hubble; Earth observation satellites from companies like Planet Labs, Umbra, and HawkEye 360; GPS; miniature CubeSats for education and research; and military/defense satellites.

Loading next visibility...
Identifier
62032, 2024-216A
Orbit
LEO
Last TLE update
10 hours ago
Origin
Manufacturer
SpaceX/Seattle
Mission
Operational Commercial Communications
Bus & Motor
STARLINK V2M, Unknown motor
Mass
730 kg wet, ~700 kg dry
Launch date (UTC)
2024-11-21 (8 months ago)
Launch vehicle
FALCON 9
Launch site
Air Force Eastern Test Range (AFETR)
Object type
Payload
Rocket body
Debris
Shape & HBR
Box + 2 Pan, 14.5 m
Radar Cross Section
36.964 m², Large (>1 m²)

Expand to show TLE details & history

TLE from 10 hours ago
0 STARLINK-32637
1 62032U 24216A   25198.90952029  .00023589  00000-0  86424-3 0  9993
2 62032  42.9979 141.8469 0001401 267.9831  92.0860 15.27569495 37974
Epoch: 2025-07-17T21:49Z
TLE epoch observation values (Epoch: 2025-07-17T21:49:42.553Z)
Latitude
-0.00001°
Longitude
-121.54898°
Altitude
482.891 km
Speed
7.626 km/s
True Right ascension
09h 27m 23s
True Declination
0° 00' 00"
Sunlit
Object was in daylight at epoch
Visualization orbit readout
Latitude
1.79981°
Longitude
54.13194°
Altitude
482.637 km
Speed
7.626 km/s
Apparent Right ascension
22h 08m 01s
Apparent Declination
-61° 59' 55"
Sunlit
Object is in full shadow
Visualization observer readout
Local Sidereal Time
20:46:04
Azimuth
170.28° S
Elevation
-13.252°
Doppler factor
1
Orbital elements
Apogee altitude
485.988 km
Perigee altitude
484.065 km
Semi-major axis
6,863.163 km
Eccentricity
0.00014
Inclination
42.9979°
RAAN
141.8469°
Arg. of periapsis
267.9831°
True anomaly
92.10204°
Mean anomaly
92.086°
Eccentric anomaly
92.09402°
Mean motion
3.8173 °/min
Orbital period
94.31 mins
BSTAR
0.00086424
Loading maneuver chart data...
Loading SW <> Apogee altitude chart data...
Loading historical data...
Loading historical data...
Loading historical data...
Loading historical data...
Loading historical data...
Loading historical data...
Loading historical data...
|